Content
SEND FEEDBACK

Daily
Averages
Monthly
Summary
United States of America

MCNEAL, ARIZONA


Home > North America > United States > Arizona
Elevation: 4100 feet     Latitude: 31 28N     Longitude: 109 36W

WEATHER
 
SELECT A DAY
Number of Records: 170,155;   Date Range: 1/1/95 - 7/27/14
 
SHARE

PRINT THIS DATA

[ ← Previous Day ]
WEATHER ALMANAC - FEBRUARY 13, 2013
[ Next Day → ]
[ °C ]   °F
Weather ElementAverageHighLow
Temperature37.9 °F55.9 °F (3:56 pm)19.9 °F (5:56 am)
Dewpoint16.3 °F23 °F (9:56 am)8.1 °F (6:56 pm)
Humidity49.5 %89 % (5:56 am)16 % (4:56 pm)
Barometer30.12 in30.18 in (7:56 am)30.05 in (3:56 pm)
Wind Speed4.8 mph10.4 mph (9:56 pm)
Weather ElementAverage
Visibility10 mi
Wind DirectionSSW (205.2 °)

Weather ElementTotal
Precipitation---
Heating Degree Days27.1 (Base 65)
Averaged from 23 records on February 13, 2013
WEATHER CONDITIONS BREAKOUT
WIND DIRECTION BREAKOUT
WEATHER BY HOUR - FEBRUARY 13, 2013
[ °C ]   °F
Local TimeTemperatureDewpointHumidityBarometerVisibilityWind DirectionWind SpeedGust SpeedPrecipitationEventsConditions
1:56 AM28.0 °F19.9 °F72 %30.15 in10.0 miNorth (360°)5.8 mphClear
2:56 AM23.0 °F18.0 °F81 %30.15 in10.0 miNNW (340°)6.9 mphClear
3:56 AM21.0 °F18.0 °F88 %30.15 in10.0 miNW (320°)4.6 mphClear
4:56 AM21.0 °F17.1 °F85 %30.14 in10.0 miNorth (10°)4.6 mphClear
5:56 AM19.9 °F17.1 °F89 %30.16 in10.0 miEast (90°)3.5 mphClear
6:56 AM19.9 °F16.0 °F85 %30.17 in10.0 miCalmClear
7:56 AM23.0 °F19.0 °F85 %30.18 in10.0 miNW (320°)3.5 mphClear
8:56 AM30.9 °F21.9 °F69 %30.18 in10.0 miNNW (330°)3.5 mphClear
9:56 AM39.0 °F23.0 °F53 %30.18 in10.0 miNW (320°)8.1 mphClear
10:56 AM44.1 °F18.0 °F35 %30.17 in10.0 miNW (310°)4.6 mphClear
11:56 AM48.0 °F17.1 °F29 %30.14 in10.0 miVariable3.5 mphClear
12:56 PM51.1 °F16.0 °F25 %30.11 in10.0 miNorth (360°)4.6 mphClear
1:56 PM53.1 °F15.1 °F22 %30.06 in10.0 miSSW (200°)4.6 mphClear
2:56 PM55.0 °F14.0 °F20 %30.06 in10.0 miVariable4.6 mphClear
3:56 PM55.9 °F12.9 °F18 %30.05 in10.0 miVariable3.5 mphClear
4:56 PM55.0 °F9.0 °F16 %30.05 in10.0 miCalmClear
5:56 PM52.0 °F10.0 °F19 %30.06 in10.0 miNW (320°)3.5 mphClear
6:56 PM50.0 °F8.1 °F18 %30.08 in10.0 miCalmClear
7:56 PM37.9 °F19.0 °F47 %30.11 in10.0 miNorth (10°)5.8 mphClear
8:56 PM37.9 °F16.0 °F41 %30.10 in10.0 miNorth (360°)5.8 mphClear
9:56 PM36.0 °F15.1 °F43 %30.10 in10.0 miNorth (350°)10.4 mphClear
10:56 PM35.1 °F17.1 °F48 %30.09 in10.0 miNorth (360°)10.4 mphClear
11:56 PM34.0 °F17.1 °F50 %30.09 in10.0 miNorth (360°)8.1 mph
Hourly data recorded from KDUG, located miles away from McNeal, Arizona







STORIES FROM OUR PARTNERS